Location: Pedholt
(56.0260°N, 10.2097°E)
Time: 08:14:35
(UTC+00:00)

Vanguard 3 - Pass Details

Date: 09 August 2021
Orbit: 510 x 3260 km, 33.4° (Epoch: 26 September)

Event Time Altitude Azimuth Distance (km) Brightness Sun altitude
Rises 21:19:32 0° 264° (W) 6,410 12.1 -13.7°
Reaches altitude 10° 21:27:19 10° 242° (WSW) 5,859 11.5 -14.3°
Maximum altitude 21:34:09 13° 220° (SW) 5,820 11.3 -14.7°
Drops below altitude 10° 21:41:22 10° 198° (SSW) 6,194 11.2 -15.2°
Enters shadow 21:45:27 - 188° (S) 6,552 11.3 -15.4°
